This is the latest recevied weather packets stored in our database for station/object W2JGA. If no packets are shown the sender has not sent any weather packets the latest 10 day(s).
| Time | Temp. | Humidity | Pressure | Rain* | Wind** | Luminosity | Snow |
|---|---|---|---|---|---|---|---|
| 1777934031 | 25.56° C | 27% | 1015.8 hPa | 0 mm | - | 65 W/m² | - |
| 1777933727 | 26.11° C | 26% | 1015.4 hPa | 0 mm | - | 65 W/m² | - |
| 1777933424 | 26.11° C | 26% | 1015.4 hPa | 0 mm | - | 84 W/m² | - |
| 1777933123 | 26.11° C | 27% | 1015.4 hPa | 0 mm | - | 89 W/m² | - |
| 1777932819 | 26.11° C | 28% | 1015.8 hPa | 0 mm | - | 103 W/m² | - |
| 1777932516 | 26.67° C | 27% | 1015.4 hPa | 0 mm | - | 111 W/m² | - |
| 1777932213 | 26.67° C | 23% | 1015.8 hPa | 0 mm | - | 108 W/m² | - |
| 1777931910 | 27.22° C | 25% | 1015.8 hPa | 0 mm | - | 106 W/m² | - |
| 1777931606 | 27.22° C | 22% | 1015.8 hPa | 0 mm | - | 122 W/m² | - |
| 1777931303 | 27.78° C | 24% | 1015.4 hPa | 0 mm | - | 138 W/m² | - |
| 1777931000 | 27.78° C | 23% | 1015.4 hPa | 0 mm | - | 177 W/m² | - |
| 1777930696 | 27.78° C | 23% | 1015.4 hPa | 0 mm | - | 193 W/m² | - |
| 1777930392 | 27.78° C | 24% | 1015 hPa | 0 mm | - | 210 W/m² | - |
| 1777930090 | 27.78° C | 24% | 1015.4 hPa | 0 mm | - | 181 W/m² | - |
| 1777929786 | 27.78° C | 24% | 1015.4 hPa | 0 mm | - | 196 W/m² | - |
| 1777929484 | 27.22° C | 24% | 1015 hPa | 0 mm | - | 232 W/m² | - |
| 1777929179 | 27.78° C | 24% | 1015 hPa | 0 mm | - | 235 W/m² | - |
| 1777928877 | 27.22° C | 25% | 1015 hPa | 0 mm | - | 204 W/m² | - |
| 1777928574 | 27.78° C | 24% | 1015.4 hPa | 0 mm | - | 173 W/m² | - |
| 1777928271 | 27.78° C | 24% | 1015 hPa | 0 mm | - | 149 W/m² | - |
| 1777927969 | 27.22° C | 24% | 1015.4 hPa | 0 mm | - | 180 W/m² | - |
| 1777927667 | 27.78° C | 24% | 1015.4 hPa | 0 mm | - | 201 W/m² | - |
| 1777927365 | 27.78° C | 23% | 1015.4 hPa | 0 mm | - | 269 W/m² | - |
| 1777927064 | 28.33° C | 22% | 1015.4 hPa | 0 mm | - | 324 W/m² | - |
| 1777926761 | 28.33° C | 22% | 1015.4 hPa | 0 mm | - | 297 W/m² | - |
* Rain latest hour (hover to see other rain measurements)
** Current wind speed in m/s (hover to see current wind gust speed)